Location: Melara
(45.0500°N, 11.1833°E)
Time: 02:27:53
(UTC+00:00)

Cosmos 2369 Rocket - Pass Details

Date: 26 May 2022
Orbit: 830 x 851 km, 71.0° (Epoch: 26 June)

Event Time Altitude Azimuth Distance (km) Brightness Sun altitude
Rises 01:51:24 0° 334° (NNW) 3,385 5.7 -14.6°
Reaches altitude 10° 01:53:51 10° 336° (NNW) 2,446 5.0 -14.3°
Maximum altitude 01:59:28 82° 64° (ENE) 843 2.3 -13.7°
Drops below altitude 10° 02:05:03 10° 153° (SSE) 2,431 4.4 -13.0°
Sets 02:07:29 0° 154° (SSE) 3,362 5.1 -12.8°
